IRNSS-1G

Last updated on Tue Sep 16 2025 00:02:48 GMT+0000 (Coordinated Universal Time)

1 41469U 16027A 25258.56527640 -.00000351 00000+0 00000+0 0 9995 2 41469 4.5155 104.4423 0004923 39.3326 184.0482 1.00270467 34425
UTC large
Height (km)
Speed (km/s)
/
Latitude / Longitude
Inclination (degrees)
Orbital Period (minutes)
Azimuth
Elevation
Range (km)
Doppler Factor

Next 0 passes for location: London (51.5072 / 0.1276)

Sorry there are no passes over London.